Flag for Guyana Weather past 2 weeks in Linden, Guyana

Now
88 °F

Passing clouds.


Feels Like: 98 °F
Forecast: 74 / 88 °F
Wind: 14 mph from East

Location: Georgetown/Cheddi Jagan International Airport

Current Time: Jul 23, 2014 at 4:31:19 PM

Latest Report: Jul 23, 2014 at 4:00 PM


Visibility: N/A

Pressure: 29.89 "Hg

Humidity: 66%

Dew point: 75 °F

Location of LindenLocation

Historic Weather in Linden — Graph

°F

Linden temperature yesterday

Maximum temperature yesterday: 90 °F (at 12:00 PM)
Minimum temperature yesterday: 72 °F (at 2:00 AM)
Average temperature yesterday: 78 °F

Past Weeks' High & Low Weather Summary

 TemperatureHumidityPressure
High90 °F (Jul 12, 1:00 PM)100% (Jul 8, 11:00 PM)30.04 "Hg (Jul 8, 11:00 PM)
Low70 °F (Jul 23, 6:00 AM)59% (Jul 22, 12:00 PM)29.86 "Hg (Jul 9, 5:00 PM)
Average78 °F89%29.96 "Hg
* Reported Jul 8 3:00 PM — Jul 23 3:00 PM, Linden, Weather by CustomWeather, © 2014

Note: Actual official high and low records may vary slightly from our data, if they occured in-between our weather recording intervals... More about our weather records

Advertising

Linden weather history for previous 24 hours

 ConditionsComfort  
Time TempWeatherWind HumidityBarometerVisibility
3:00 PM
Jul 23
90 °FScattered clouds.14 mph59%29.89 "HgN/A
2:00 PM88 °FPartly sunny.14 mph62%29.89 "HgN/A
1:00 PM90 °FPartly sunny.14 mph59%29.92 "HgN/A
12:00 PM86 °FSprinkles. Partly sunny.9 mph70%29.95 "HgN/A
11:00 AM88 °FPartly sunny.14 mph66%29.98 "HgN/A
10:00 AM84 °FSprinkles. Partly sunny.9 mph74%29.98 "HgN/A
9:00 AM84 °FSmoke.5 mph74%29.98 "HgN/A
8:00 AM82 °FScattered clouds.5 mph84%29.98 "HgN/A
7:00 AM73 °FPassing clouds.No wind100%29.98 "HgN/A
6:00 AM70 °FScattered clouds.5 mph100%29.95 "Hg6 mi
5:00 AM72 °FPassing clouds.5 mph100%29.92 "Hg6 mi
1:00 AM75 °FFog.No wind94%29.95 "Hg3 mi
12:00 AM77 °FClear.No wind94%29.95 "Hg10 mi
11:00 PM
Jul 22
77 °FClear.5 mph94%29.98 "Hg10 mi
10:00 PM77 °FPassing clouds.5 mph89%29.98 "HgN/A
9:00 PM77 °FPassing clouds.No wind94%29.98 "HgN/A
8:00 PM77 °FPassing clouds.5 mph94%29.98 "HgN/A
7:00 PM81 °FPassing clouds.7 mph84%29.95 "HgN/A
Weather by CustomWeather, © 2014

See weather overviewHow to use our weather pages